Regional Weather Roundup
Issued by NWS

Home | Current Version | Previous Version | Graphics & Text | Print | Product List | Glossary On
Versions: 1 2 3 4 5 6 7 8 9 10 11 12 13 14 15 16 17 18 19 20 21 22 23 24 25 26 27 28 29 30 31 32 33 34 35 36 37 38 39 40 41 42 43 44 45 46 47 48 49 50
000
ASUS43 KMKX 192211
RWRWI

WISCONSIN REGIONAL WEATHER ROUNDUP
NATIONAL WEATHER SERVICE MILWAUKEE/SULLIVAN WI
400 PM CST SUN NOV 19 2017

NOTE: "FAIR" INDICATES FEW OR NO CLOUDS BELOW 12,000 FEET WITH NO
SIGNIFICANT WEATHER AND/OR OBSTRUCTIONS TO VISIBILITY.

WIZ001-002-006>008-014>016-023>028-192300-
NORTHWEST WISCONSIN

CITY           SKY/WX    TMP DP  RH WIND       PRES   REMARKS
SUPERIOR ARPT  CLOUDY    28  15  59 W5        29.89S WCI  22
ASHLAND        CLOUDY    24  15  68 S3        29.89F
HAYWARD        CLOUDY    30  13  49 SW5       29.87F WCI  25
SIREN          CLEAR     32  16  52 SW7       29.88F WCI  26
CUMBERLAND     CLEAR     32  18  55 SW9       29.88F WCI  24
RICE LAKE      CLEAR     32  17  54 S6        29.91S WCI  27
CHETEK         CLEAR     32  17  52 SW5       29.90F WCI  27
LADYSMITH      CLOUDY    32  16  52 SW8       29.91S WCI  25
EAU CLAIRE     CLEAR     32  15  49 SW7       29.92F WCI  26
MENOMONIE      CLEAR     32  17  54 SE7       29.92F WCI  26
NEW RICHMOND   CLEAR     32  19  58 S6        29.90F WCI  26
OSCEOLA        CLEAR     33  19  54 S5        29.93F WCI  29
$$

WIZ003>005-009-010-017-018-192300-
NORTH CENTRAL WISCONSIN

CITY           SKY/WX    TMP DP  RH WIND       PRES   REMARKS
MANITOWISH WTR LGT SNOW  20  18  91 SW5       29.85F WCI  14
ARBOR VITAE    LGT SNOW  23  17  78 W3        29.86S
WOODRUFF       LGT SNOW  23  17  78 W3        29.86S
RHINELANDER    CLOUDY   N/A N/A N/A W9        29.87S
EAGLE RIVER    FLURRIES  22  14  72 W7        29.85S WCI  13
LAND O LAKES   FLURRIES  21  16  79 W5        29.86F WCI  15
PHILLIPS       CLOUDY    26  12  56 SW5       29.87S WCI  20
TOMAHAWK       CLOUDY    26  10  51 W3        29.89S
MEDFORD        MOCLDY    28  15  58 SW8       29.89S WCI  20
MERRILL        CLOUDY    28  11  47 W7        29.90S WCI  21
$$

WIZ029-030-035-036-043>047-192300-
CENTRAL WISCONSIN

CITY           SKY/WX    TMP DP  RH WIND       PRES   REMARKS
WAUSAU         CLOUDY    29  14  53 W8        29.90S WCI  21
MOSINEE        MOCLDY    30  16  55 W7        29.92F WCI  23
MARSHFIELD     PTCLDY    29  13  51 W7        29.91S WCI  22
STEVENS POINT  PTCLDY    29  13  50 W8        29.94R WCI  21
WAUPACA        CLOUDY    33  11  39 W9        29.95F WCI  26
WAUTOMA        CLEAR     31  15  52 W7        29.97  WCI  24
WISC RAPIDS    CLEAR     31  14  49 W9        29.95F WCI  23
CAMP DOUGLAS   CLEAR    N/A N/A N/A W5        29.98S
$$

WIZ011>013-019>022-031-037>040-048>050-192300-
NORTHEAST WISCONSIN

CITY           SKY/WX    TMP DP  RH WIND       PRES   REMARKS
ANTIGO         CLOUDY    26   9  48 W9        29.88S WCI  17
SHAWANO        CLOUDY    31  10  40 W7        29.93S WCI  24
OCONTO         MOCLDY    28  11  48 W7        29.93S WCI  21
STURGEON BAY   PTCLDY    29  12  49 W12       29.93R WCI  19
GREEN BAY      CLOUDY    30  14  51 W13       29.95R WCI  20
MANITOWOC      CLOUDY    30  13  49 W10G20    29.96S WCI  21
APPLETON       MOCLDY    30   7  37 W13       29.94R WCI  20
CLINTONVILLE   PTCLDY    30   9  40 W7        29.93F WCI  23
OSHKOSH        PTCLDY    30  11  45 W8        29.96S WCI  22
$$

WIZ032>034-041-042-053>061-192300-
SOUTHWEST WISCONSIN

CITY           SKY/WX    TMP DP  RH WIND       PRES   REMARKS
LA CROSSE      CLEAR     37  19  48 SW9       29.98F WCI  30
SPARTA         CLEAR     33  17  51 CALM      29.97F
VIROQUA        CLEAR     33  21  60 SW12      29.97F WCI  25
BOSCOBEL       CLEAR     36  17  46 SW8       30.03F WCI  30
PRAIRIE DU CHI CLEAR     35  17  47 SW8       30.03F WCI  29
PLATTEVILLE    CLEAR     33  21  62 SW13      30.04F WCI  24
$$

WIZ056-057-062-063-064-067-068-192300-
SOUTH CENTRAL WISCONSIN

CITY           SKY/WX    TMP DP  RH WIND       PRES   REMARKS
REEDSBURG      PTCLDY    33  16  50 W9        29.98F WCI  25
BARABOO/DELLS  PTCLDY    32  16  51 SW10G16   29.97F WCI  24
LONE ROCK      CLEAR     34  18  52 W8        30.01F WCI  27
MINERAL POINT  CLEAR     34  19  55 W9        30.01F WCI  26
MADISON        PTCLDY    32  15  49 W8        30.01S WCI  25
MIDDLETON      CLEAR     34  17  50 W10       30.01F WCI  26
WATERTOWN      CLEAR     32  16  52 W10       29.99F WCI  23
MONROE         CLEAR     32  18  55 W10G17    30.01F WCI  24
JANESVILLE     PTCLDY    36  18  48 W8        30.03S WCI  29
$$

WIZ051-052-058>065-066-070>072-192300-
SOUTHEAST WISCONSIN

CITY           SKY/WX    TMP DP  RH WIND       PRES   REMARKS
MILWAUKEE      PTCLDY    32  12  43 W13G20    30.01R WCI  22
WAUKESHA       CLEAR     28  12  50 W14       30.01R WCI  17
MILWAUKEE/TIMM CLEAR     30   9  40 W10       30.01R WCI  21
RACINE         CLEAR     32  12  43 W12G20    30.03R WCI  23
BURLINGTON     CLEAR     33  21  60 W10G16    30.02S WCI  25
KENOSHA        CLEAR     33  14  45 W14G23    30.02R WCI  23
FOND DU LAC    CLEAR     30  10  43 W7        29.97S WCI  23
SHEBOYGAN      CLEAR     30  13  49 W13       29.97R WCI  20
WEST BEND      CLEAR     30  10  43 W8        29.98S WCI  23
JUNEAU         PTCLDY    31  14  48 W8        29.99F WCI  24
$$

LSZ147-162-192300-
LAKE SUPERIOR

STATION/POSITION TIME  TEMP    WIND        PRES    WAVE
                       AIR SEA DIR/SP/G            HT/PER
                 (UTC) (F)     (DEG/KT/KT) (MB)    (FT/S)
DEVILS ISLAND    2200   27     240/ 17/ 21 1012.5F
SAXON HARBOR     2130   25     210/  6/  9 1012.2S
$$

LMZ867-665-643>646-192300-
LAKE MICHIGAN

STATION/POSITION TIME  TEMP    WIND        PRES    WAVE
                       AIR SEA DIR/SP/G            HT/PER
                 (UTC) (F)     (DEG/KT/KT) (MB)    (FT/S)
N MID LAKE BUOY  2150   28 48  270/ 16/ 21 1013.7R   3/ 4
NORTHPORT PIER   2140   28     270/  7/ 12 1012.9R
KEWAUNEE LAKESHO 2148   30     290/  9/ 12 1013.1R
SHEBOYGAN LAKESH 2200   31     260/ 12/ 14 1015.5R
PORT WASHINGTON  2140   32     280/  8/ 14 1016.6R
MILWAUKEE LAKESH 2150   32     280/ 13/ 16   N/A
S MID LAKE BUOY  2050   33 49  310/ 16/ 19 1016.1F   5/ 7
KENOSHA   LAKESH 2200   33     280/  9/ 15 1016.9
$$

TC  - TEMPERATURE IN CELSIUS
VSB - VISIBILITY IN STATUTE MILES
WCI - WIND CHILL INDEX
HX  - HEAT INDEX





USA.gov is the U.S. government's official web portal to all federal, state and local government web resources and services.